Location: Newark
(25.4297°S, 49.2719°W)
Time: 04:51:36
(UTC+00:00)

Vanguard 1 Rocket - Pass Details

Date: 22 November 2019
Orbit: 650 x 4226 km, 34.3° (Epoch: 09 December)

Event Time Altitude Azimuth Distance (km) Brightness Sun altitude
Rises 17:29:49 0° 281° (WNW) 6,695 12.3 55.9°
Reaches altitude 10° 17:33:37 10° 279° (W) 6,049 12.3 55.1°
Maximum altitude 17:55:44 74° 194° (SSW) 4,267 11.8 50.1°
Drops below altitude 10° 18:21:47 10° 108° (ESE) 6,887 11.6 44.2°
Sets 18:26:31 0° 105° (ESE) 7,601 11.7 43.1°
